Theta_e
337 337 336 333 336 340 339 342 345 344 343 341 339 339 338 340 338 337 335 334 330 328
325 330 332 332 335 333 334 338 340 342 344 342 339 339 339 337 337 336 335 331 330 330
323 323 323 323 325 331 332 334 335 336 338 339 338 338 340 339 336 333 332 332 331 331
317 320 319 318 319 323 329 330 332 334 335 337 338 340 337 336 338 337 335 335 334 334
311 313 314 317 316 318 319 327 329 330 333 333 335 335 336 335 337 336 333 333 331 332
307 308 311 313 316 316 317 319 327 328 328 333 334 332 333 334 335 335 334 332 332 331
305 306 308 311 314 314 316 316 318 321 327 329 331 333 333 334 333 332 332 331 331 331
306 307 308 309 311 314 313 317 317 318 319 321 328 331 331 329 328 328 330 331 331 330
307 308 307 308 310 310 313 314 316 316 317 316 320 314 311 318 324 325 324 326 326 327
306 306 306 308 308 309 309 312 313 313 313 312 314 311 308 308 320 325 325 325 326 327
305 305 306 306 306 307 308 309 311 312 312 311 313 306 305 305 315 319 321 324 326 325
304 304 305 304 303 304 305 306 308 310 311 311 311 304 301 305 314 316 319 324 323 325
304 304 303 303 302 303 304 306 309 310 311 310 311 307 302 303 314 313 312 312 314 312
304 303 303 302 301 302 303 305 306 306 307 309 310 311 304 300 310 311 309 307 307 310
Wind_Speed
7 5 4 5 3 3 2 4 5 6 9 9 5 5 6 3 5 6 6 7 5 3
6 6 6 6 2 1 3 3 5 6 7 8 7 7 6 5 5 5 5 4 5 4
7 7 6 5 7 6 5 7 6 5 5 6 5 6 7 6 5 6 4 4 6 5
7 7 7 6 6 6 5 6 6 7 5 5 4 4 2 3 4 5 5 4 4 5
7 7 7 7 7 5 6 6 5 6 6 5 5 4 5 8 6 6 5 4 4 6
8 9 10 8 7 7 5 6 6 5 6 5 4 4 5 5 5 7 6 6 6 6
8 7 7 8 8 7 6 4 5 5 5 6 6 5 5 4 4 5 5 6 7 8
7 7 7 7 10 11 7 5 3 4 6 6 5 4 6 5 4 5 6 6 6 7
7 8 8 9 8 8 9 7 3 3 3 5 4 10 8 5 5 5 5 5 3 5
6 6 7 7 9 10 8 7 7 6 5 6 6 8 9 7 4 5 4 6 5 5
5 5 5 5 6 7 6 7 6 7 6 6 6 7 8 6 5 5 7 4 5 4
5 6 6 7 7 6 5 6 7 7 7 7 8 9 8 3 3 5 6 5 5 6
6 6 6 7 7 4 4 6 5 7 7 8 7 8 10 6 3 4 4 5 6 8
7 7 7 7 4 5 6 5 6 7 7 7 6 8 9 11 5 5 4 4 4 4
Wind_Direction
33 48 59 33 32 10 342 306 319 246 238 233 218 205 221 220 209 205 220 220 199 198
29 28 24 11 357 357 316 301 299 302 248 244 223 205 190 224 224 205 216 217 218 222
6 12 14 14 12 360 344 352 335 320 317 257 234 219 188 222 213 192 200 199 209 217
357 354 353 3 359 355 342 342 342 335 328 324 217 131 157 216 205 204 194 210 230 256
355 355 348 332 329 343 347 334 331 328 327 312 290 248 199 211 201 220 224 216 248 256
349 352 338 327 311 315 335 341 339 338 325 315 311 309 250 245 225 208 212 215 226 238
336 331 326 319 318 301 301 313 336 350 333 315 301 294 286 276 256 237 233 228 229 229
311 318 325 335 335 331 295 285 306 350 347 349 315 292 286 253 251 267 261 238 232 229
339 346 335 337 334 342 333 307 311 338 346 339 327 321 289 284 268 245 263 273 276 290
324 340 339 341 340 337 339 324 314 312 329 321 321 321 306 297 284 286 262 247 245 252
306 317 322 332 340 334 325 330 317 309 319 319 309 343 344 336 301 297 290 272 264 251
321 322 319 322 315 303 314 322 322 307 308 309 302 316 327 314 301 286 285 300 287 269
293 300 292 285 293 268 279 288 305 308 299 284 285 292 285 271 273 273 278 300 303 304
268 267 271 279 263 276 285 276 282 293 283 283 265 281 255 251 244 231 236 250 270 269